Time,TemperatureF,DewpointF,PressureIn,WindDirection,WindDirectionDegrees,WindSpeedMPH,WindSpeedGustMPH,Humidity,HourlyPrecipIn,Conditions,Clouds,dailyrainin,SoftwareType,DateUTC
2013-05-21 00:06:00,47.4,45.0,29.90,SE,137,0.0,0.0,91,0.00,,,0.00,weatherlink.com 1.10,2013-05-21 07:06:00,
2013-05-21 00:21:00,47.2,45.0,29.89,SE,137,0.0,0.0,92,0.00,,,0.00,weatherlink.com 1.10,2013-05-21 07:21:00,
2013-05-21 00:36:00,47.0,45.0,29.89,SE,137,0.0,0.0,92,0.00,,,0.00,weatherlink.com 1.10,2013-05-21 07:36:00,
2013-05-21 00:51:00,46.8,45.0,29.89,SE,137,0.0,0.0,92,0.00,,,0.00,weatherlink.com 1.10,2013-05-21 07:51:00,
2013-05-21 01:06:00,46.5,44.0,29.88,SE,137,0.0,0.0,92,0.00,,,0.00,weatherlink.com 1.10,2013-05-21 08:06:00,
2013-05-21 01:21:00,46.5,45.0,29.88,SE,137,0.0,0.0,93,0.00,,,0.00,weatherlink.com 1.10,2013-05-21 08:21:00,
2013-05-21 01:36:00,46.4,45.0,29.88,SE,137,0.0,0.0,93,0.00,,,0.00,weatherlink.com 1.10,2013-05-21 08:36:00,
2013-05-21 01:51:00,46.6,45.0,29.88,SE,137,0.0,0.0,93,0.00,,,0.00,weatherlink.com 1.10,2013-05-21 08:51:00,
2013-05-21 02:06:00,46.5,45.0,29.88,SE,137,0.0,0.0,93,0.00,,,0.00,weatherlink.com 1.10,2013-05-21 09:06:00,
2013-05-21 02:21:00,46.5,45.0,29.88,SE,137,0.0,0.0,93,0.00,,,0.00,weatherlink.com 1.10,2013-05-21 09:21:00,
2013-05-21 02:36:00,46.4,45.0,29.88,SE,137,0.0,0.0,93,0.00,,,0.00,weatherlink.com 1.10,2013-05-21 09:36:00,
2013-05-21 02:51:00,46.4,45.0,29.88,SE,137,0.0,0.0,94,0.00,,,0.00,weatherlink.com 1.10,2013-05-21 09:51:00,
2013-05-21 03:06:00,46.4,45.0,29.87,SE,137,0.0,0.0,94,0.00,,,0.00,weatherlink.com 1.10,2013-05-21 10:06:00,
2013-05-21 03:21:00,46.4,45.0,29.87,SE,137,0.0,0.0,94,0.00,,,0.00,weatherlink.com 1.10,2013-05-21 10:21:00,
2013-05-21 03:36:00,46.5,45.0,29.87,South,177,0.0,1.0,94,0.00,,,0.00,weatherlink.com 1.10,2013-05-21 10:36:00,
2013-05-21 03:51:00,46.1,44.0,29.87,South,179,0.0,0.0,93,0.00,,,0.00,weatherlink.com 1.10,2013-05-21 10:51:00,
2013-05-21 04:06:00,45.8,44.0,29.87,South,179,0.0,0.0,93,0.00,,,0.00,weatherlink.com 1.10,2013-05-21 11:06:00,
2013-05-21 04:21:00,45.6,44.0,29.87,South,179,0.0,0.0,94,0.00,,,0.00,weatherlink.com 1.10,2013-05-21 11:21:00,
2013-05-21 04:36:00,45.5,44.0,29.88,South,179,0.0,0.0,94,0.00,,,0.00,weatherlink.com 1.10,2013-05-21 11:36:00,
2013-05-21 04:51:00,45.5,44.0,29.88,South,179,0.0,0.0,94,0.00,,,0.00,weatherlink.com 1.10,2013-05-21 11:51:00,
2013-05-21 05:06:00,45.6,44.0,29.88,South,179,0.0,0.0,94,0.00,,,0.00,weatherlink.com 1.10,2013-05-21 12:06:00,
2013-05-21 05:21:00,45.8,44.0,29.89,South,179,0.0,0.0,94,0.00,,,0.00,weatherlink.com 1.10,2013-05-21 12:21:00,
2013-05-21 05:36:00,46.0,44.0,29.89,South,179,0.0,0.0,94,0.00,,,0.00,weatherlink.com 1.10,2013-05-21 12:36:00,
2013-05-21 05:51:00,46.1,45.0,29.90,South,179,0.0,0.0,95,0.00,,,0.00,weatherlink.com 1.10,2013-05-21 12:51:00,
2013-05-21 06:06:00,46.2,45.0,29.90,South,179,0.0,0.0,94,0.00,,,0.00,weatherlink.com 1.10,2013-05-21 13:06:00,
2013-05-21 06:21:00,46.2,45.0,29.91,South,179,0.0,0.0,94,0.00,,,0.00,weatherlink.com 1.10,2013-05-21 13:21:00,
2013-05-21 06:36:00,46.2,45.0,29.92,South,179,0.0,0.0,94,0.00,,,0.00,weatherlink.com 1.10,2013-05-21 13:36:00,
2013-05-21 06:51:00,45.7,44.0,29.91,South,179,0.0,0.0,94,0.00,,,0.00,weatherlink.com 1.10,2013-05-21 13:51:00,
2013-05-21 07:06:00,46.5,45.0,29.91,South,179,0.0,0.0,95,0.00,,,0.00,weatherlink.com 1.10,2013-05-21 14:06:00,
2013-05-21 07:21:00,47.6,46.0,29.93,SSW,199,0.0,0.0,94,0.00,,,0.00,weatherlink.com 1.10,2013-05-21 14:21:00,
2013-05-21 07:36:00,48.9,47.0,29.93,SSW,199,0.0,0.0,93,0.00,,,0.00,weatherlink.com 1.10,2013-05-21 14:36:00,
2013-05-21 07:52:00,50.8,48.0,29.93,SSW,199,0.0,0.0,91,0.00,,,0.00,weatherlink.com 1.10,2013-05-21 14:52:00,
2013-05-21 08:07:00,52.5,49.0,29.94,SSW,199,0.0,0.0,86,0.00,,,0.00,weatherlink.com 1.10,2013-05-21 15:07:00,
2013-05-21 08:22:00,54.6,49.0,29.94,SSW,192,0.0,2.0,82,0.00,,,0.00,weatherlink.com 1.10,2013-05-21 15:22:00,
2013-05-21 08:37:00,56.3,50.0,29.94,SSW,192,0.0,0.0,79,0.00,,,0.00,weatherlink.com 1.10,2013-05-21 15:37:00,
2013-05-21 08:52:00,58.7,49.0,29.93,WNW,288,0.0,6.0,70,0.00,,,0.00,weatherlink.com 1.10,2013-05-21 15:52:00,
2013-05-21 09:07:00,61.1,49.0,29.94,WSW,257,2.0,3.0,64,0.00,,,0.00,weatherlink.com 1.10,2013-05-21 16:07:00,
2013-05-21 09:22:00,63.1,49.0,29.94,ESE,109,0.0,3.0,61,0.00,,,0.00,weatherlink.com 1.10,2013-05-21 16:22:00,
2013-05-21 09:37:00,64.9,49.0,29.95,NNW,348,0.0,3.0,57,0.00,,,0.00,weatherlink.com 1.10,2013-05-21 16:37:00,
2013-05-21 09:52:00,65.7,48.0,29.94,ESE,115,0.0,7.0,54,0.00,,,0.00,weatherlink.com 1.10,2013-05-21 16:52:00,
2013-05-21 11:17:00,68.1,43.0,29.95,NE,46,4.0,10.0,40,0.00,,,0.00,weatherlink.com 1.10,2013-05-21 18:17:00,
2013-05-21 11:23:00,68.2,43.0,29.95,North,356,0.0,10.0,40,0.00,,,0.00,weatherlink.com 1.10,2013-05-21 18:23:00,
2013-05-21 11:38:00,68.5,42.0,29.95,North,356,1.0,13.0,38,0.00,,,0.00,weatherlink.com 1.10,2013-05-21 18:38:00,
2013-05-21 11:53:00,69.6,42.0,29.95,North,5,3.0,9.0,37,0.00,,,0.00,weatherlink.com 1.10,2013-05-21 18:53:00,
2013-05-21 12:08:00,70.1,42.0,29.94,ESE,109,2.0,9.0,36,0.00,,,0.00,weatherlink.com 1.10,2013-05-21 19:08:00,
2013-05-21 12:23:00,70.3,42.0,29.94,NE,45,5.0,8.0,36,0.00,,,0.00,weatherlink.com 1.10,2013-05-21 19:23:00,
2013-05-21 12:38:00,70.2,38.0,29.93,NW,305,0.0,7.0,31,0.00,,,0.00,weatherlink.com 1.10,2013-05-21 19:38:00,
2013-05-21 12:53:00,70.9,38.0,29.93,NW,304,2.0,8.0,30,0.00,,,0.00,weatherlink.com 1.10,2013-05-21 19:53:00,
2013-05-21 13:08:00,71.3,38.0,29.93,NNE,32,0.0,11.0,30,0.00,,,0.00,weatherlink.com 1.10,2013-05-21 20:08:00,
2013-05-21 13:23:00,72.2,40.0,29.92,NW,321,2.0,8.0,31,0.00,,,0.00,weatherlink.com 1.10,2013-05-21 20:23:00,
2013-05-21 13:38:00,72.4,42.0,29.92,NNW,333,2.0,12.0,33,0.00,,,0.00,weatherlink.com 1.10,2013-05-21 20:38:00,
2013-05-21 13:53:00,72.5,38.0,29.91,NNW,341,2.0,13.0,28,0.00,,,0.00,weatherlink.com 1.10,2013-05-21 20:53:00,
2013-05-21 14:08:00,72.3,36.0,29.91,WNW,290,4.0,15.0,27,0.00,,,0.00,weatherlink.com 1.10,2013-05-21 21:08:00,
2013-05-21 14:23:00,73.6,37.0,29.91,NNW,338,7.0,10.0,26,0.00,,,0.00,weatherlink.com 1.10,2013-05-21 21:23:00,
2013-05-21 14:38:00,73.8,40.0,29.90,NNW,332,1.0,9.0,29,0.00,,,0.00,weatherlink.com 1.10,2013-05-21 21:38:00,
2013-05-21 14:53:00,73.1,40.0,29.90,West,274,0.0,13.0,30,0.00,,,0.00,weatherlink.com 1.10,2013-05-21 21:53:00,
2013-05-21 15:08:00,74.7,38.0,29.89,WNW,296,7.0,10.0,27,0.00,,,0.00,weatherlink.com 1.10,2013-05-21 22:08:00,
2013-05-21 15:23:00,73.6,40.0,29.89,WNW,302,0.0,10.0,30,0.00,,,0.00,weatherlink.com 1.10,2013-05-21 22:23:00,
2013-05-21 15:38:00,74.5,41.0,29.89,NW,313,0.0,11.0,30,0.00,,,0.00,weatherlink.com 1.10,2013-05-21 22:38:00,
2013-05-21 15:53:00,73.9,48.0,29.88,West,281,8.0,12.0,40,0.00,,,0.00,weatherlink.com 1.10,2013-05-21 22:53:00,
2013-05-21 16:08:00,73.8,45.0,29.88,NW,306,1.0,8.0,36,0.00,,,0.00,weatherlink.com 1.10,2013-05-21 23:08:00,
2013-05-21 16:23:00,75.1,42.0,29.87,NW,306,0.0,7.0,30,0.00,,,0.00,weatherlink.com 1.10,2013-05-21 23:23:00,
2013-05-21 16:38:00,74.1,43.0,29.87,ENE,73,2.0,13.0,33,0.00,,,0.00,weatherlink.com 1.10,2013-05-21 23:38:00,
2013-05-21 16:53:00,73.6,42.0,29.87,NW,315,1.0,12.0,32,0.00,,,0.00,weatherlink.com 1.10,2013-05-21 23:53:00,
2013-05-21 17:08:00,72.5,39.0,29.87,NE,37,6.0,14.0,30,0.00,,,0.00,weatherlink.com 1.10,2013-05-22 00:08:00,
2013-05-21 17:23:00,72.2,39.0,29.87,NNW,346,4.0,16.0,30,0.00,,,0.00,weatherlink.com 1.10,2013-05-22 00:23:00,
2013-05-21 17:38:00,72.4,38.0,29.87,NE,44,8.0,13.0,29,0.00,,,0.00,weatherlink.com 1.10,2013-05-22 00:38:00,
2013-05-21 17:53:00,72.4,37.0,29.86,ENE,75,2.0,11.0,28,0.00,,,0.00,weatherlink.com 1.10,2013-05-22 00:53:00,
2013-05-21 18:08:00,71.6,38.0,29.87,North,5,2.0,11.0,29,0.00,,,0.00,weatherlink.com 1.10,2013-05-22 01:08:00,
2013-05-21 18:23:00,70.8,38.0,29.87,NE,36,4.0,13.0,30,0.00,,,0.00,weatherlink.com 1.10,2013-05-22 01:23:00,
2013-05-21 18:38:00,69.5,37.0,29.87,NW,315,0.0,13.0,31,0.00,,,0.00,weatherlink.com 1.10,2013-05-22 01:38:00,
2013-05-21 18:53:00,67.7,39.0,29.88,ENE,73,0.0,11.0,35,0.00,,,0.00,weatherlink.com 1.10,2013-05-22 01:53:00,
2013-05-21 19:08:00,66.5,39.0,29.89,North,359,1.0,10.0,37,0.00,,,0.00,weatherlink.com 1.10,2013-05-22 02:08:00,
2013-05-21 19:23:00,65.5,40.0,29.89,NW,322,0.0,6.0,40,0.00,,,0.00,weatherlink.com 1.10,2013-05-22 02:23:00,
2013-05-21 19:38:00,64.3,42.0,29.90,NNE,15,0.0,6.0,45,0.00,,,0.00,weatherlink.com 1.10,2013-05-22 02:38:00,
2013-05-21 19:54:00,62.7,41.0,29.91,NE,54,2.0,7.0,46,0.00,,,0.00,weatherlink.com 1.10,2013-05-22 02:54:00,
2013-05-21 20:09:00,61.1,41.0,29.91,NNW,343,0.0,7.0,47,0.00,,,0.00,weatherlink.com 1.10,2013-05-22 03:09:00,
2013-05-21 20:24:00,59.6,41.0,29.91,North,8,0.0,9.0,50,0.00,,,0.00,weatherlink.com 1.10,2013-05-22 03:24:00,
2013-05-21 20:39:00,58.4,40.0,29.92,NW,323,1.0,8.0,51,0.00,,,0.00,weatherlink.com 1.10,2013-05-22 03:39:00,
2013-05-21 20:54:00,57.3,40.0,29.93,NW,323,6.0,7.0,53,0.00,,,0.00,weatherlink.com 1.10,2013-05-22 03:54:00,
2013-05-21 21:09:00,56.2,40.0,29.94,North,352,2.0,3.0,55,0.00,,,0.00,weatherlink.com 1.10,2013-05-22 04:09:00,
2013-05-21 21:24:00,55.3,40.0,29.94,NNW,347,0.0,5.0,56,0.00,,,0.00,weatherlink.com 1.10,2013-05-22 04:24:00,
2013-05-21 21:39:00,54.5,39.0,29.95,WNW,282,0.0,4.0,57,0.00,,,0.00,weatherlink.com 1.10,2013-05-22 04:39:00,
2013-05-21 21:54:00,53.6,39.0,29.95,NW,314,0.0,3.0,58,0.00,,,0.00,weatherlink.com 1.10,2013-05-22 04:54:00,
2013-05-21 22:09:00,52.8,38.0,29.96,NW,306,0.0,3.0,58,0.00,,,0.00,weatherlink.com 1.10,2013-05-22 05:09:00,
2013-05-21 22:24:00,52.4,37.0,29.96,WNW,288,1.0,3.0,56,0.00,,,0.00,weatherlink.com 1.10,2013-05-22 05:24:00,
2013-05-21 22:39:00,52.4,37.0,29.96,North,356,0.0,5.0,56,0.00,,,0.00,weatherlink.com 1.10,2013-05-22 05:39:00,
2013-05-21 22:54:00,52.4,36.0,29.96,NNE,25,4.0,8.0,55,0.00,,,0.00,weatherlink.com 1.10,2013-05-22 05:54:00,
2013-05-21 23:09:00,52.2,35.0,29.96,North,350,1.0,8.0,53,0.00,,,0.00,weatherlink.com 1.10,2013-05-22 06:09:00,
2013-05-21 23:24:00,51.8,34.0,29.96,NNE,15,0.0,9.0,52,0.00,,,0.00,weatherlink.com 1.10,2013-05-22 06:24:00,
2013-05-21 23:39:00,51.6,35.0,29.96,NNE,28,5.0,7.0,53,0.00,,,0.00,weatherlink.com 1.10,2013-05-22 06:39:00,
2013-05-21 23:54:00,51.4,34.0,29.96,ENE,77,0.0,15.0,52,0.00,,,0.00,weatherlink.com 1.10,2013-05-22 06:54:00,